EW1895 Weather Reports


time (UTC)temp
C
wind
direction
speed
KPH
gust
KPH
rain 1hr
cm
rain 24hr
cm
rain mn
cm
humidity
%
barometer
mb
20260503040017 10 113 0.0 0.0 0.00 0.00 0.00 60 1014.2
20260503034518 10 113 0.0 0.0 0.00 0.00 0.00 62 1014.2
20260503031515 10 113 0.0 0.0 0.00 0.00 0.00 65 1014.1
20260503030017 10 113 0.0 0.0 0.00 0.00 0.00 65 1014.0
20260503024513 10 113 0.0 0.0 0.00 0.00 0.00 70 1014.1
20260503021511 10 113 0.0 0.0 0.00 0.00 0.00 68 1014.0
20260503020009 11 113 0.0 0.0 0.00 0.00 0.00 69 1014.0
20260503014506 11 113 0.0 0.0 0.00 0.00 0.00 67 1013.8
20260503011501 11 113 0.0 0.0 0.00 0.00 0.00 65 1013.5
20260503010104 12 113 0.0 0.0 0.00 0.00 0.00 63 1013.4
20260503004555 12 113 0.0 0.0 0.00 0.00 0.00 59 1013.2
20260503001552 12 113 0.0 0.0 0.00 0.00 0.00 54 1012.9
20260503000100 13 113 0.0 0.0 0.00 0.00 0.00 57 1012.7
20260502234545 13 113 0.0 0.0 0.00 0.00 0.00 53 1012.3
20260502231544 15 113 0.0 0.0 0.00 0.00 0.00 50 1012.0
20260502230036 15 113 0.0 0.0 0.00 0.00 0.00 49 1011.8
20260502224534 15 113 0.0 0.0 0.00 0.00 0.00 47 1011.7
20260502221534 15 88 0.0 0.0 0.00 0.00 0.00 45 1011.8
20260502220028 16 88 0.0 4.8 0.00 0.00 0.00 41 1011.9
20260502214527 16 62 0.0 4.8 0.00 0.00 0.00 42 1011.9
20260502211526 17 154 0.0 6.4 0.00 0.00 0.00 37 1011.9
20260502210025 17 57 0.0 4.8 0.00 0.00 0.00 37 1011.7
20260502204526 17 346 0.0 6.4 0.00 0.00 0.00 36 1011.9
20260502201624 17 346 0.0 4.8 0.00 0.00 0.00 37 1012.1
20260502200024 18 346 0.0 6.4 0.00 0.00 0.00 36 1011.9
20260502194524 18 346 0.0 4.8 0.00 0.00 0.00 36 1012.1
20260502191523 17 11 1.6 8.0 0.00 0.00 0.00 39 1012.5
20260502190027 16 171 0.0 6.4 0.00 0.00 0.00 40 1012.6
20260502184522 17 347 0.0 1.6 0.00 0.00 0.00 38 1012.8
20260502181521 17 305 0.0 9.7 0.00 0.00 0.00 38 1013.2
20260502161519 13 350 0.0 4.8 0.00 0.00 0.00 46 1014.8
20260502151516 13 340 0.0 6.4 0.00 0.00 0.00 49 1015.0
20260502121505 10 349 1.6 6.4 0.00 0.00 0.00 71 1014.2
20260502114504 9 327 0.0 0.0 0.00 0.00 0.00 78 1014.0
20260502111502 9 326 0.0 1.6 0.00 0.00 0.00 81 1014.1
20260502110002 8 15 0.0 8.0 0.00 0.00 0.00 82 1014.2
20260502104500 8 346 0.0 4.8 0.00 0.00 0.00 84 1014.0
20260502101604 8 5 0.0 0.0 0.00 0.00 0.00 87 1013.7
20260502070045 9 234 0.0 0.0 0.00 0.00 0.00 84 1012.7
20260502064546 10 234 0.0 0.0 0.00 0.00 0.00 83 1012.8
20260502061539 10 234 0.0 0.0 0.00 0.00 0.00 81 1012.9
20260502060037 11 234 0.0 0.0 0.00 0.00 0.00 80 1012.9
20260502054535 11 234 0.0 0.0 0.00 0.00 0.00 79 1013.1
20260502051534 11 234 0.0 0.0 0.00 0.00 0.00 76 1013.1
20260502050034 12 234 0.0 0.0 0.00 0.00 0.00 74 1012.8
20260502044526 12 203 0.0 0.0 0.00 0.00 0.00 73 1012.8
20260502041527 12 248 0.0 1.6 0.00 0.00 0.00 71 1012.8